Regional Weather Roundup
Issued by NWS

Home | Current Version | Previous Version | Graphics & Text | Print | Product List | Glossary On
Versions: 1 2 3 4 5 6 7 8 9 10 11 12 13 14 15 16 17 18 19 20 21 22 23 24 25 26 27 28 29 30 31 32 33 34 35 36 37 38 39 40 41 42 43 44 45 46 47 48 49 50
000
ASUS43 KMPX 171101
RWRMN
WEATHER ROUNDUP FOR MINNESOTA
NATIONAL WEATHER SERVICE TWIN CITIES/CHANHASSEN MN
500 AM CST SAT FEB 17 2018


NOTE: "FAIR" INDICATES FEW OR NO CLOUDS BELOW 12,000 FEET WITH NO
SIGNIFICANT WEATHER AND/OR OBSTRUCTIONS TO VISIBILITY. N/A MEANS
CURRENT SKY AND/OR WEATHER CONDITIONS ARE NOT AVAILABLE.

MNZ060>063-068>070-171200-
   Twin Cities Metro

CITY           SKY/WX    TMP DP  RH WIND       PRES   REMARKS
TWIN CITIES    CLOUDY    24  14  65 SW9       29.88F WCI  14
ST PAUL        CLOUDY    21  13  71 SE3       29.90F
CRYSTAL        CLOUDY    22  12  65 SW7       29.86F WCI  13
BLAINE         MOCLDY    25  16  68 SW8       29.86F WCI  16
LAKEVILLE      FAIR      23  14  68 SW6       29.88S WCI  16
EDEN PRAIRIE   CLOUDY    24  14  65 SW7       29.87F WCI  16
SOUTH ST PAUL  CLOUDY    22  13  67 CALM      29.89F
LAKE ELMO      FAIR      21  14  73 S8        29.89F WCI  12
$$
MNZ001>005-007-008-013>017-022>024-027-028-171200-
   Northwest Minnesota

CITY           SKY/WX    TMP DP  RH WIND       PRES   REMARKS
BEMIDJI        FAIR      18  14  85 W10       29.73R WCI   6
HALLOCK        FAIR       9   3  78 W5        29.75R WCI   0
WARROAD        CLOUDY    12   9  85 W12       29.69S WCI  -2
CROOKSTON      FAIR      16  10  79 W10       29.79R WCI   3
FOSSTON        FAIR      12  10  92 SW8       29.76R WCI   1
DETROIT LAKES  FAIR      21  18  86 W8        29.78S WCI  12
MOORHEAD       FAIR      16  10  79 W6        29.82S WCI   7
PARK RAPIDS    FAIR      14  10  84 SW7       29.75R WCI   4
MAHNOMEN       FAIR      15  12  86 SW8       29.78R WCI   5
$$
MNZ006-009>011-018-025>026-171200-
   North Central Minnesota

CITY           SKY/WX    TMP DP  RH WIND       PRES   REMARKS
BAUDETTE       CLOUDY    15   9  76 W9        29.68R WCI   3
FLAG ISLAND    FAIR       9   5  85 W8        29.66R WCI  -4
INTL FALLS     MOCLDY    18  12  77 W8        29.67R WCI   8
WASKISH        FAIR      14  10  85 W10       29.71R WCI   1
BIG FORK       FAIR      18  12  79 SW8       29.70S WCI   7
LONGVILLE      FAIR      16  12  86 SW6       29.75S WCI   7
GRAND RAPIDS   FAIR      16  12  84 W5        29.75S WCI   9
CRANE LAKE     CLOUDY    18  10  73 S6        29.69F WCI   9
ORR            FAIR      16   9  73 SW5       29.66S WCI   9
COOK           CLOUDY    14   9  79 SW7       29.70S WCI   4
WALKER         FAIR      18  14  86 SW10      29.74R WCI   6
$$
MNZ012-019>021-037-171200-
   Northeast Minnesota

CITY           SKY/WX    TMP DP  RH WIND       PRES   REMARKS
DULUTH         FAIR      15   8  73 SW16      29.75R WCI  -1
ELY            MOCLDY    14   9  79 SW8       29.69S WCI   3
HIBBING        FAIR      11   6  81 VRB3      29.73R
EVELETH        FAIR     N/A N/A N/A SW7       29.73S
DULUTH HARBOR  MOCLDY    19  12  73 SW9       29.82R WCI   9
TWO HARBORS    FAIR      18  10  73 SW7       29.74S WCI   8
G MARAIS ARPRT CLOUDY    10   7  85 S5        29.66F WCI   2
$$
MNZ029>031-032-039>041-046>048-054>057-064-171200-
   West Central Minnesota

CITY           SKY/WX    TMP DP  RH WIND       PRES   REMARKS
FERGUS FALLS   FAIR      16  12  86 W7        29.81S WCI   6
WHEATON        PTCLDY    23  18  80 W7        29.83F WCI  15
MORRIS         CLOUDY    19  14  79 CALM      29.80S
ALEXANDRIA     FAIR      21  15  78 W7        29.79S WCI  12
ELBOW LAKE     FAIR      18  15  86 NW9       29.80F WCI   7
WADENA         FAIR      18  16  93 SW6       29.78R WCI   9
GLENWOOD       FAIR      19  16  86 SW7       29.80F WCI  10
APPLETON       CLOUDY    27  19  74 SW6       29.82S WCI  20
BENSON         CLOUDY    21  18  86 SW5       29.83S WCI  15
MADISON        CLOUDY    28  21  74 SW7       29.83R WCI  21
WILLMAR        FAIR      25  18  74 SW5       29.84F WCI  19
$$
MNZ033>034-036-042>043-049>051-058-059-171200-
   Central Minnesota

CITY           SKY/WX    TMP DP  RH WIND       PRES   REMARKS
ST CLOUD       FAIR      18  13  80 S6        29.82F WCI  10
SAUK CENTRE    PTSUNNY   18  14  84 CALM      29.81R
PAYNESVILLE    FAIR      21  17  84 S5        29.82F WCI  14
AITKIN         FAIR      16  10  79 S6        29.77S WCI   7
PINE RIVER     FAIR      16  12  86 SW5       29.81S WCI   9
BRAINERD       FAIR      16  11  80 S6        29.78F WCI   7
STAPLES        FAIR      14  10  85 CALM      29.78S
LONG PRAIRIE   FAIR      18  14  86 S3        29.80S
LITTLE FALLS   CLOUDY    19  10  68 S3        29.82S
LITCHFIELD     MOCLDY    25  18  74 S3        29.83F
BUFFALO        CLOUDY    22  14  72 S5        29.86F WCI  15
MAPLE LAKE     CLOUDY    22  16  77 MISG      29.85F
HUTCHINSON     CLOUDY    23  17  78 CALM      29.86F
$$
MNZ037-044-045-052-053-171200-
   East Central Minnesota

CITY           SKY/WX    TMP DP  RH WIND       PRES   REMARKS
PRINCETON      FAIR      21  14  73 S6        29.83F WCI  14
MORA           FAIR      18  10  73 S3        29.84S
CAMBRIDGE      FAIR      21  12  68 S8        29.85S WCI  12
RUSH CITY      CLOUDY    18  11  75 S6        29.85S WCI  10
MOOSE LAKE     CLOUDY    14   9  79 SW5       29.79S WCI   6
HINCKLEY       CLOUDY    18  12  79 S7        29.82F WCI   8
CLOQUET        FAIR      14   9  79 SW8       29.77R WCI   3
MCGREGOR       FAIR      18  14  86 SW7       29.79R WCI   8
$$
MNZ071>073-080-081-089-090-097-098-171200-
   Southwest Minnesota

CITY           SKY/WX    TMP DP  RH WIND       PRES   REMARKS
MONTEVIDEO     CLOUDY    27  19  74 W6        29.83S WCI  20
GRANITE FALLS  CLOUDY    29  20  70 S9        29.85F WCI  20
CANBY          CLOUDY    28  21  76 W9        29.83S WCI  19
MARSHALL       CLOUDY    28  21  75 SW10      29.83F WCI  19
REDWOOD FALLS  LGT SNOW  25  19  78 SW12      29.85F WCI  14
OLIVIA         CLOUDY    28  19  69 SW9       29.83F WCI  20
PIPESTONE      LGT SNOW  23  21  93 SW7       29.82F VSB 1   WCI  15
WINDOM         CLOUDY    25   9  50 SW9       29.86S WCI  15
WORTHINGTON    CLOUDY    23  16  74 SW13      29.85F WCI  11
JACKSON        CLOUDY    23  16  74 S10       29.87F WCI  12
TRACY          CLOUDY    27  23  83 SW13      29.84S WCI  16
SLAYTON        LGT SNOW  23  21  93 SW14      29.83F WCI  10
$$
MNZ065>067-074>077-082>085-091>093-171200-
   South Central Minnesota

CITY           SKY/WX    TMP DP  RH WIND       PRES   REMARKS
MANKATO        FLURRIES  24  16  71 SW13      29.88F WCI  12
NEW ULM        CLOUDY    27  16  63 SW9       29.86F WCI  17
ST JAMES       FLURRIES  27  19  74 SW16      29.88R WCI  14
FAIRMONT       CLOUDY    23  15  71 SW13      29.89F WCI  11
GLENCOE        CLOUDY    23  17  79 S6        29.86F WCI  16
FARIBAULT      CLOUDY    25  14  63 S9        29.90S WCI  15
OWATONNA       MOCLDY    25  16  68 S18       29.89F WCI  11
WASECA         CLOUDY    23  16  74 SW13      29.91S WCI  11
ALBERT LEA     CLOUDY    25  10  54 S10       29.90F WCI  15
$$
MNZ078>079-086>088-094>096-171200-
   Southeast Minnesota

CITY           SKY/WX    TMP DP  RH WIND       PRES   REMARKS
ROCHESTER      CLOUDY    20  12  71 S18       29.91F WCI   5
RED WING       FAIR      23   9  54 W5        29.92F WCI  17
STANTON        CLOUDY    25  14  62 SW12G18   29.88F WCI  14
DODGE CENTER   FAIR      19  12  73 S17       29.88F WCI   4
WINONA         MOCLDY    23  10  58 CALM      29.96F
AUSTIN         MOCLDY    19  12  73 S8        29.93F WCI   9
PRESTON        FAIR      19   9  65 S17       29.94S WCI   3
$$
ABBREVIATIONS USED IN REMARKS
   TC - TEMPERATURES IN CELSIUS
  WCI - WIND CHILL INDEX
   HX - HEAT INDEX
  VSB - VISIBILITY
$$



USA.gov is the U.S. government's official web portal to all federal, state and local government web resources and services.